JFA34A EGLF-EKRK

Flight info

Callsign JFA34A
Flight time 1h 39m
Altitude 41000
Route HAZEL L620 SAM Q41 PEPIS DCT OCK UM185 KOBBI M197 BRAIN Q295 SOMVA DCT MAVAS DCT AGISU DCT DOSUR DCT TNO DCT FISKO
Aircraft PC24/M-SBDGIRWY/LB2

Departure

Time 2026-04-25 13:11
Airport Farnborough Airport (EGLF)

Arrival

Time 2026-04-25 14:50
Airport Copenhagen Roskilde Airport (EKRK)
Time Latitude Longitude Altitude Speed Heading
2026-04-25 12:46 51.28133 -0.77673 218 ft 0 kts 306°
2026-04-25 13:05 51.28135 -0.77679 218 ft 4 kts 306°
2026-04-25 13:05 51.28137 -0.77732 218 ft 4 kts 243°
2026-04-25 13:05 51.28104 -0.77783 218 ft 9 kts 221°
2026-04-25 13:06 51.28037 -0.77853 218 ft 14 kts 207°
2026-04-25 13:06 51.27937 -0.77892 220 ft 17 kts 209°
2026-04-25 13:06 51.27840 -0.78001 220 ft 18 kts 215°
2026-04-25 13:06 51.27722 -0.78136 220 ft 23 kts 216°
2026-04-25 13:07 51.27598 -0.78324 223 ft 26 kts 222°
2026-04-25 13:07 51.27454 -0.78525 224 ft 29 kts 220°
2026-04-25 13:07 51.27310 -0.78755 229 ft 29 kts 239°
2026-04-25 13:07 51.27215 -0.79032 237 ft 21 kts 242°
2026-04-25 13:08 51.27175 -0.79143 235 ft 8 kts 229°
2026-04-25 13:08 51.27164 -0.79161 235 ft 0 kts 219°
2026-04-25 13:09 51.27127 -0.79168 232 ft 11 kts 165°
2026-04-25 13:10 51.27096 -0.79085 233 ft 10 kts 58°
2026-04-25 13:10 51.27105 -0.79062 231 ft 0 kts 60°
2026-04-25 13:10 51.27144 -0.78945 234 ft 42 kts 62°
2026-04-25 13:10 51.27400 -0.78177 224 ft 112 kts 62°
2026-04-25 13:11 51.27860 -0.76855 377 ft 153 kts 61°
2026-04-25 13:11 51.28411 -0.75216 763 ft 178 kts 61°
2026-04-25 13:11 51.28992 -0.73516 1145 ft 171 kts 61°
2026-04-25 13:11 51.29466 -0.71820 1502 ft 164 kts 72°
2026-04-25 13:12 51.29817 -0.70028 1872 ft 180 kts 72°
2026-04-25 13:12 51.30009 -0.67926 2294 ft 204 kts 101°
2026-04-25 13:12 51.29204 -0.66072 2724 ft 213 kts 148°
2026-04-25 13:12 51.28299 -0.65375 2956 ft 218 kts 150°
2026-04-25 13:13 51.27178 -0.62777 3024 ft 220 kts 105°
2026-04-25 13:13 51.26674 -0.60472 2994 ft 221 kts 122°
2026-04-25 13:13 51.25473 -0.59054 2991 ft 219 kts 167°
2026-04-25 13:13 51.24034 -0.59430 3270 ft 217 kts 210°
2026-04-25 13:14 51.23106 -0.61275 3572 ft 217 kts 254°
2026-04-25 13:14 51.23240 -0.63635 3971 ft 220 kts 297°
2026-04-25 13:14 51.24168 -0.65571 4389 ft 221 kts 311°
2026-04-25 13:14 51.24785 -0.67767 4757 ft 223 kts 271°
2026-04-25 13:15 51.24333 -0.70103 5166 ft 224 kts 243°
2026-04-25 13:15 51.23700 -0.72365 5552 ft 224 kts 250°
2026-04-25 13:15 51.23166 -0.74715 5945 ft 226 kts 251°
2026-04-25 13:15 51.22629 -0.77083 6334 ft 228 kts 251°
2026-04-25 13:16 51.22085 -0.79475 6711 ft 229 kts 251°
2026-04-25 13:16 51.21524 -0.81927 7080 ft 249 kts 251°
2026-04-25 13:16 51.20904 -0.84634 7408 ft 266 kts 251°
2026-04-25 13:16 51.20260 -0.87458 7775 ft 274 kts 251°
2026-04-25 13:17 51.19889 -0.90447 8104 ft 279 kts 274°
2026-04-25 13:17 51.20567 -0.93303 8419 ft 278 kts 308°
2026-04-25 13:17 51.22129 -0.95052 8740 ft 280 kts 341°
2026-04-25 13:17 51.24051 -0.95471 9103 ft 281 kts 357°
2026-04-25 13:18 51.26017 -0.95498 9509 ft 284 kts 359°
2026-04-25 13:18 51.28001 -0.95454 9879 ft 286 kts
2026-04-25 13:18 51.29966 -0.95378 10262 ft 287 kts
2026-04-25 13:18 51.31860 -0.94365 10563 ft 294 kts 34°
2026-04-25 13:19 51.33334 -0.92114 10926 ft 294 kts 43°
2026-04-25 13:19 51.34844 -0.89876 11285 ft 297 kts 41°
2026-04-25 13:19 51.36254 -0.87448 11620 ft 301 kts 57°
2026-04-25 13:19 51.36584 -0.86445 11745 ft 303 kts 65°
2026-04-25 13:20 51.37853 -0.81222 12356 ft 304 kts 56°
2026-04-25 13:20 51.39273 -0.78665 12721 ft 304 kts 43°
2026-04-25 13:20 51.40798 -0.76250 13140 ft 316 kts 46°
2026-04-25 13:20 51.42225 -0.73445 13615 ft 334 kts 53°
2026-04-25 13:21 51.43555 -0.70311 14113 ft 345 kts 55°
2026-04-25 13:21 51.44958 -0.67151 14616 ft 349 kts 52°
2026-04-25 13:21 51.46447 -0.64043 15151 ft 354 kts 51°
2026-04-25 13:21 51.47940 -0.60886 15693 ft 357 kts 52°
2026-04-25 13:22 51.49394 -0.57701 16237 ft 360 kts 53°
2026-04-25 13:22 51.50882 -0.54442 16800 ft 364 kts 52°
2026-04-25 13:22 51.52406 -0.51155 17366 ft 369 kts 52°
2026-04-25 13:23 51.55487 -0.44467 18539 ft 375 kts 52°
2026-04-25 13:23 51.57043 -0.41072 19055 ft 378 kts 52°
2026-04-25 13:23 51.58610 -0.37659 19578 ft 378 kts 52°
2026-04-25 13:23 51.60124 -0.34351 20425 ft 356 kts 52°
2026-04-25 13:24 51.61532 -0.31270 21994 ft 328 kts 52°
2026-04-25 13:24 51.62404 -0.29365 23034 ft 311 kts 52°
2026-04-25 13:24 51.64080 -0.25697 24256 ft 306 kts 52°
2026-04-25 13:24 51.65349 -0.22918 24820 ft 309 kts 53°
2026-04-25 13:25 51.66624 -0.20116 25416 ft 311 kts 53°
2026-04-25 13:25 51.67905 -0.17287 25985 ft 314 kts 54°
2026-04-25 13:25 51.68898 -0.14133 26537 ft 318 kts 71°
2026-04-25 13:25 51.69485 -0.10694 27091 ft 320 kts 76°
2026-04-25 13:26 51.70028 -0.07189 27633 ft 324 kts 76°
2026-04-25 13:26 51.70579 -0.03657 28168 ft 327 kts 76°
2026-04-25 13:26 51.70949 -0.01300 28530 ft 329 kts 76°
2026-04-25 13:26 51.71509 0.02290 29042 ft 332 kts 77°
2026-04-25 13:27 51.72071 0.05912 29564 ft 334 kts 77°
2026-04-25 13:27 51.72640 0.09578 29985 ft 340 kts 76°
2026-04-25 13:27 51.73222 0.13337 30123 ft 349 kts 77°
2026-04-25 13:27 51.73807 0.17118 30601 ft 345 kts 76°
2026-04-25 13:28 51.74382 0.20852 31040 ft 342 kts 76°
2026-04-25 13:28 51.74763 0.23328 31199 ft 345 kts 76°
2026-04-25 13:28 51.75547 0.28441 31291 ft 357 kts 76°
2026-04-25 13:29 51.76768 0.36426 31370 ft 375 kts 76°
2026-04-25 13:29 51.78036 0.44769 31545 ft 387 kts 76°
2026-04-25 13:30 51.79317 0.53238 32044 ft 388 kts 77°
2026-04-25 13:30 51.79954 0.57466 32329 ft 387 kts 77°
2026-04-25 13:30 51.80588 0.61684 32610 ft 386 kts 76°
2026-04-25 13:31 51.82328 0.69821 33176 ft 382 kts 66°
2026-04-25 13:31 51.83355 0.73776 33477 ft 380 kts 67°
2026-04-25 13:31 51.84363 0.77714 33772 ft 379 kts 67°
2026-04-25 13:31 51.85375 0.81638 34076 ft 377 kts 67°
2026-04-25 13:32 51.86373 0.85477 34364 ft 374 kts 67°
2026-04-25 13:32 51.87369 0.89339 34714 ft 370 kts 67°
2026-04-25 13:32 51.88353 0.93174 35067 ft 367 kts 67°
2026-04-25 13:32 51.89330 0.96977 35422 ft 364 kts 67°
2026-04-25 13:33 51.90300 1.00757 35733 ft 363 kts 67°
2026-04-25 13:33 51.91266 1.04528 36028 ft 362 kts 67°
2026-04-25 13:33 51.92227 1.08290 36324 ft 360 kts 67°
2026-04-25 13:33 51.92859 1.10769 36524 ft 359 kts 67°
2026-04-25 13:34 51.94131 1.15762 36926 ft 357 kts 67°
2026-04-25 13:34 51.95083 1.19499 37072 ft 361 kts 67°
2026-04-25 13:34 51.96043 1.23281 37209 ft 365 kts 67°
2026-04-25 13:34 51.97012 1.27106 37354 ft 369 kts 67°
2026-04-25 13:35 51.97991 1.30972 37492 ft 372 kts 67°
2026-04-25 13:35 51.98976 1.34875 37643 ft 376 kts 67°
2026-04-25 13:35 51.99970 1.38818 37787 ft 379 kts 67°
2026-04-25 13:35 52.00968 1.42783 37936 ft 381 kts 67°
2026-04-25 13:36 52.01975 1.46790 38078 ft 384 kts 67°
2026-04-25 13:36 52.02983 1.50807 38256 ft 385 kts 67°
2026-04-25 13:36 52.03992 1.54841 38458 ft 385 kts 67°
2026-04-25 13:36 52.05000 1.58873 38655 ft 386 kts 67°
2026-04-25 13:37 52.06008 1.62915 38850 ft 386 kts 67°
2026-04-25 13:37 52.07002 1.66907 39015 ft 386 kts 67°
2026-04-25 13:37 52.08008 1.70955 39176 ft 386 kts 67°
2026-04-25 13:37 52.09010 1.74994 39402 ft 384 kts 67°
2026-04-25 13:38 52.10004 1.79011 39630 ft 382 kts 67°
2026-04-25 13:38 52.10993 1.83009 39857 ft 380 kts 67°
2026-04-25 13:38 52.11973 1.86984 40082 ft 378 kts 67°
2026-04-25 13:38 52.12955 1.90968 40207 ft 380 kts 67°
2026-04-25 13:39 52.13937 1.94964 40330 ft 381 kts 67°
2026-04-25 13:39 52.14924 1.98986 40453 ft 383 kts 67°
2026-04-25 13:39 52.15912 2.03019 40581 ft 384 kts 67°
2026-04-25 13:39 52.16901 2.07066 40703 ft 385 kts 67°
2026-04-25 13:40 52.17892 2.11125 40834 ft 386 kts 66°
2026-04-25 13:40 52.18884 2.15197 40956 ft 387 kts 66°
2026-04-25 13:40 52.19877 2.19280 41085 ft 388 kts 66°
2026-04-25 13:40 52.20870 2.23373 41211 ft 389 kts 66°
2026-04-25 13:41 52.21868 2.27494 41218 ft 393 kts 66°
2026-04-25 13:41 52.23891 2.35868 41230 ft 400 kts 67°
2026-04-25 13:42 52.25943 2.44398 41226 ft 407 kts 67°
2026-04-25 13:42 52.28003 2.52994 41225 ft 412 kts 67°
2026-04-25 13:43 52.30093 2.61751 41222 ft 416 kts 67°
2026-04-25 13:43 52.31855 2.70790 41225 ft 420 kts 72°
2026-04-25 13:44 52.33465 2.79935 41227 ft 417 kts 72°
2026-04-25 13:44 52.35060 2.89015 41217 ft 414 kts 72°
2026-04-25 13:45 52.36642 2.98087 41218 ft 416 kts 72°
2026-04-25 13:45 52.38228 3.07221 41227 ft 418 kts 72°
2026-04-25 13:46 52.40064 3.16238 41223 ft 416 kts 60°
2026-04-25 13:46 52.43312 3.23948 41226 ft 409 kts 49°
2026-04-25 13:47 52.46783 3.31301 41227 ft 407 kts 49°
2026-04-25 13:47 52.50250 3.38647 41224 ft 408 kts 49°
2026-04-25 13:48 52.53731 3.46055 41232 ft 411 kts 49°
2026-04-25 13:48 52.57224 3.53508 41222 ft 410 kts 49°
2026-04-25 13:49 52.60687 3.60918 41220 ft 407 kts 49°
2026-04-25 13:49 52.64126 3.68296 41226 ft 407 kts 49°
2026-04-25 13:50 52.67575 3.75720 41220 ft 409 kts 49°
2026-04-25 13:50 52.71040 3.83200 41225 ft 411 kts 49°
2026-04-25 13:51 52.74491 3.90673 41213 ft 408 kts 49°
2026-04-25 13:51 52.77915 3.98107 41206 ft 405 kts 49°
2026-04-25 13:52 52.81330 4.05542 41207 ft 407 kts 49°
2026-04-25 13:52 52.84761 4.13036 41213 ft 410 kts 49°
2026-04-25 13:53 52.88174 4.20515 41207 ft 409 kts 49°
2026-04-25 13:53 52.91590 4.28019 41202 ft 407 kts 49°
2026-04-25 13:54 52.94982 4.35495 41197 ft 405 kts 49°
2026-04-25 13:54 52.98364 4.42967 41199 ft 405 kts 49°
2026-04-25 13:55 53.01751 4.50476 41199 ft 407 kts 49°
2026-04-25 13:55 53.05146 4.58024 41194 ft 408 kts 49°
2026-04-25 13:56 53.08543 4.65598 41196 ft 408 kts 49°
2026-04-25 13:56 53.11923 4.73159 41196 ft 406 kts 49°
2026-04-25 13:57 53.15285 4.80700 41196 ft 404 kts 49°
2026-04-25 13:57 53.18627 4.88219 41196 ft 404 kts 49°
2026-04-25 13:58 53.21974 4.95772 41197 ft 406 kts 49°
2026-04-25 13:58 53.25333 5.03374 41195 ft 408 kts 49°
2026-04-25 13:59 53.28700 5.11019 41192 ft 409 kts 49°
2026-04-25 13:59 53.32058 5.18668 41192 ft 407 kts 49°
2026-04-25 14:00 53.34270 5.23717 41198 ft 406 kts 49°
2026-04-25 14:00 53.38695 5.33847 41199 ft 405 kts 49°
2026-04-25 14:01 53.42026 5.41502 41200 ft 407 kts 49°
2026-04-25 14:01 53.45367 5.49203 41201 ft 409 kts 49°
2026-04-25 14:02 53.48715 5.56944 41196 ft 410 kts 49°
2026-04-25 14:02 53.52043 5.64664 41197 ft 407 kts 49°
2026-04-25 14:03 53.55349 5.72352 41183 ft 405 kts 49°
2026-04-25 14:03 53.58649 5.80049 41189 ft 406 kts 49°
2026-04-25 14:04 53.61960 5.87800 41193 ft 408 kts 49°
2026-04-25 14:04 53.65274 5.95581 41184 ft 408 kts 49°
2026-04-25 14:05 53.68578 6.03364 41181 ft 407 kts 49°
2026-04-25 14:05 53.71864 6.11124 41171 ft 406 kts 49°
2026-04-25 14:06 53.75134 6.18875 41171 ft 405 kts 49°
2026-04-25 14:06 53.78371 6.26566 41168 ft 404 kts 49°
2026-04-25 14:07 53.81618 6.34308 41170 ft 404 kts 49°
2026-04-25 14:07 53.84866 6.42077 41168 ft 401 kts 49°
2026-04-25 14:08 53.88087 6.49803 41167 ft 404 kts 50°
2026-04-25 14:08 53.91171 6.57875 41161 ft 409 kts 51°
2026-04-25 14:09 53.94256 6.65952 41159 ft 407 kts 51°
2026-04-25 14:09 53.97315 6.74022 41152 ft 405 kts 51°
2026-04-25 14:10 54.00357 6.82055 41155 ft 404 kts 51°
2026-04-25 14:10 54.03390 6.90097 41144 ft 405 kts 51°
2026-04-25 14:11 54.06431 6.98185 41146 ft 407 kts 51°
2026-04-25 14:11 54.09483 7.06329 41141 ft 408 kts 51°
2026-04-25 14:12 54.12524 7.14474 41139 ft 406 kts 51°
2026-04-25 14:12 54.15544 7.22586 41138 ft 404 kts 51°
2026-04-25 14:13 54.18531 7.30634 41132 ft 405 kts 51°
2026-04-25 14:13 54.21547 7.38787 41131 ft 407 kts 51°
2026-04-25 14:14 54.24572 7.46994 41126 ft 409 kts 51°
2026-04-25 14:14 54.27602 7.55243 41120 ft 409 kts 51°
2026-04-25 14:15 54.30618 7.63478 41112 ft 407 kts 51°
2026-04-25 14:15 54.33622 7.71707 41112 ft 406 kts 51°
2026-04-25 14:16 54.36611 7.79921 41106 ft 407 kts 51°
2026-04-25 14:16 54.39102 7.86790 41102 ft 409 kts 51°
2026-04-25 14:17 54.42111 7.95112 41100 ft 411 kts 51°
2026-04-25 14:17 54.45127 8.03483 41095 ft 412 kts 51°
2026-04-25 14:18 54.48128 8.11842 41087 ft 410 kts 51°
2026-04-25 14:18 54.51113 8.20181 41083 ft 408 kts 51°
2026-04-25 14:19 54.54091 8.28528 41081 ft 410 kts 52°
2026-04-25 14:19 54.57083 8.36944 41075 ft 414 kts 52°
2026-04-25 14:20 54.60085 8.45422 41078 ft 414 kts 52°
2026-04-25 14:20 54.63070 8.53876 41071 ft 412 kts 52°
2026-04-25 14:21 54.66037 8.62308 41066 ft 411 kts 52°
2026-04-25 14:21 54.69006 8.70773 41068 ft 413 kts 52°
2026-04-25 14:22 54.71983 8.79295 41062 ft 415 kts 52°
2026-04-25 14:22 54.74968 8.87866 41056 ft 416 kts 52°
2026-04-25 14:23 54.77940 8.96439 41051 ft 414 kts 52°
2026-04-25 14:23 54.80898 9.04990 41039 ft 412 kts 52°
2026-04-25 14:24 54.83839 9.13524 41036 ft 413 kts 52°
2026-04-25 14:24 54.86928 9.21926 41027 ft 410 kts 45°
2026-04-25 14:25 54.90332 9.29903 41019 ft 412 kts 46°
2026-04-25 14:25 54.93725 9.37922 41012 ft 411 kts 46°
2026-04-25 14:26 54.97107 9.45908 41006 ft 409 kts 46°
2026-04-25 14:26 54.98792 9.49910 40836 ft 413 kts 46°
2026-04-25 14:26 55.00507 9.53973 40294 ft 417 kts 46°
2026-04-25 14:26 55.02210 9.58034 39746 ft 413 kts 45°
2026-04-25 14:27 55.03888 9.62048 39205 ft 407 kts 45°
2026-04-25 14:27 55.05524 9.65950 38693 ft 401 kts 44°
2026-04-25 14:27 55.07183 9.69908 38105 ft 396 kts 44°
2026-04-25 14:27 55.08773 9.73715 37606 ft 392 kts 44°
2026-04-25 14:28 55.10376 9.77555 37081 ft 393 kts 43°
2026-04-25 14:28 55.11999 9.81436 36551 ft 398 kts 43°
2026-04-25 14:28 55.13634 9.85369 36011 ft 402 kts 43°
2026-04-25 14:28 55.15276 9.89340 35464 ft 403 kts 43°
2026-04-25 14:29 55.16916 9.93304 34925 ft 402 kts 42°
2026-04-25 14:29 55.18555 9.97264 34381 ft 401 kts 42°
2026-04-25 14:29 55.20189 10.01216 33823 ft 400 kts 41°
2026-04-25 14:29 55.21836 10.05212 33265 ft 399 kts 41°
2026-04-25 14:30 55.23449 10.09119 32715 ft 403 kts 41°
2026-04-25 14:30 55.26759 10.17175 31621 ft 410 kts 42°
2026-04-25 14:30 55.28423 10.21246 31077 ft 411 kts 42°
2026-04-25 14:31 55.30090 10.25322 30532 ft 413 kts 42°
2026-04-25 14:31 55.31768 10.29425 29976 ft 414 kts 42°
2026-04-25 14:31 55.33443 10.33535 29391 ft 414 kts 42°
2026-04-25 14:31 55.35124 10.37671 28840 ft 417 kts 42°
2026-04-25 14:32 55.36819 10.41828 28287 ft 420 kts 42°
2026-04-25 14:32 55.38520 10.46026 27726 ft 422 kts 42°
2026-04-25 14:32 55.40222 10.50237 27165 ft 423 kts 42°
2026-04-25 14:32 55.41922 10.54449 26605 ft 421 kts 42°
2026-04-25 14:33 55.43608 10.58631 26064 ft 417 kts 42°
2026-04-25 14:33 55.45283 10.62786 25516 ft 415 kts 42°
2026-04-25 14:33 55.46949 10.66923 24975 ft 413 kts 42°
2026-04-25 14:33 55.48606 10.71050 24432 ft 413 kts 42°
2026-04-25 14:34 55.50274 10.75199 23885 ft 415 kts 42°
2026-04-25 14:34 55.51937 10.79362 23307 ft 415 kts 42°
2026-04-25 14:34 55.53587 10.83506 22740 ft 410 kts 42°
2026-04-25 14:34 55.55214 10.87595 22219 ft 404 kts 42°
2026-04-25 14:35 55.56831 10.91643 21682 ft 402 kts 42°
2026-04-25 14:35 55.58440 10.95679 21152 ft 401 kts 42°
2026-04-25 14:35 55.60035 10.99704 20628 ft 398 kts 42°
2026-04-25 14:35 55.61613 11.03697 20108 ft 394 kts 42°
2026-04-25 14:36 55.63180 11.07655 19597 ft 391 kts 42°
2026-04-25 14:36 55.64736 11.11589 19084 ft 389 kts 42°
2026-04-25 14:36 55.66261 11.15458 18584 ft 386 kts 42°
2026-04-25 14:36 55.67788 11.19341 18069 ft 383 kts 42°
2026-04-25 14:37 55.69303 11.23196 17545 ft 379 kts 42°
2026-04-25 14:37 55.70804 11.27019 17053 ft 377 kts 42°
2026-04-25 14:37 55.72285 11.30859 16558 ft 380 kts 46°
2026-04-25 14:37 55.73498 11.35103 16052 ft 391 kts 57°
2026-04-25 14:38 55.74341 11.39742 15540 ft 399 kts 68°
2026-04-25 14:38 55.74760 11.44639 15011 ft 404 kts 79°
2026-04-25 14:38 55.74727 11.49635 14480 ft 405 kts 90°
2026-04-25 14:38 55.74245 11.54473 13956 ft 391 kts 102°
2026-04-25 14:39 55.73376 11.58938 13424 ft 376 kts 112°
2026-04-25 14:39 55.72272 11.63028 12929 ft 361 kts 115°
2026-04-25 14:39 55.71196 11.67026 12462 ft 358 kts 115°
2026-04-25 14:39 55.70128 11.71011 11993 ft 356 kts 115°
2026-04-25 14:40 55.69058 11.74959 11527 ft 354 kts 115°
2026-04-25 14:40 55.67793 11.78662 11049 ft 350 kts 130°
2026-04-25 14:40 55.66274 11.81989 10604 ft 347 kts 130°
2026-04-25 14:40 55.64786 11.85341 10146 ft 344 kts 130°
2026-04-25 14:41 55.63338 11.88603 9690 ft 330 kts 130°
2026-04-25 14:41 55.61936 11.91720 9238 ft 318 kts 130°
2026-04-25 14:41 55.60580 11.94720 8822 ft 306 kts 130°
2026-04-25 14:41 55.59266 11.97642 8425 ft 302 kts 130°
2026-04-25 14:42 55.57961 12.00541 8029 ft 300 kts 130°
2026-04-25 14:42 55.57522 12.01514 7897 ft 300 kts 130°
2026-04-25 14:42 55.55375 12.06268 7243 ft 295 kts 129°
2026-04-25 14:42 55.54101 12.09088 6850 ft 292 kts 129°
2026-04-25 14:43 55.52850 12.11852 6474 ft 284 kts 129°
2026-04-25 14:43 55.51636 12.14532 6092 ft 276 kts 129°
2026-04-25 14:43 55.50461 12.17122 5777 ft 266 kts 129°
2026-04-25 14:43 55.49328 12.19618 5498 ft 257 kts 129°
2026-04-25 14:44 55.48223 12.22050 5175 ft 252 kts 129°
2026-04-25 14:44 55.47142 12.24443 4845 ft 247 kts 127°
2026-04-25 14:44 55.46474 12.27162 4515 ft 241 kts 95°
2026-04-25 14:44 55.46541 12.30009 4198 ft 227 kts 66°
2026-04-25 14:45 55.46934 12.31665 4002 ft 216 kts 50°
2026-04-25 14:45 55.48265 12.34005 3628 ft 192 kts 19°
2026-04-25 14:45 55.49462 12.34793 3381 ft 178 kts
2026-04-25 14:45 55.50647 12.34845 3153 ft 164 kts 343°
2026-04-25 14:46 55.51700 12.34306 2932 ft 150 kts 328°
2026-04-25 14:46 55.52546 12.33357 2745 ft 142 kts 316°
2026-04-25 14:46 55.53220 12.32045 2561 ft 146 kts 303°
2026-04-25 14:46 55.53698 12.30460 2361 ft 147 kts 296°
2026-04-25 14:47 55.54139 12.28891 2165 ft 135 kts 297°
2026-04-25 14:47 55.54409 12.27931 2040 ft 130 kts 297°
2026-04-25 14:47 55.54935 12.26065 1902 ft 126 kts 297°
2026-04-25 14:47 55.55333 12.24653 1728 ft 129 kts 297°
2026-04-25 14:48 55.55727 12.23233 1467 ft 129 kts 297°
2026-04-25 14:48 55.56072 12.22013 1450 ft 101 kts 297°
2026-04-25 14:48 55.56403 12.20899 1193 ft 101 kts 300°
2026-04-25 14:48 55.56708 12.19860 1052 ft 96 kts 295°
2026-04-25 14:49 55.57000 12.18788 813 ft 95 kts 294°
2026-04-25 14:49 55.57263 12.17717 595 ft 98 kts 294°
2026-04-25 14:49 55.57575 12.16611 683 ft 94 kts 296°
2026-04-25 14:49 55.57865 12.15567 533 ft 96 kts 297°
2026-04-25 14:50 55.58072 12.14849 387 ft 98 kts 297°
2026-04-25 14:50 55.58454 12.13533 149 ft 75 kts 296°
2026-04-25 14:50 55.58578 12.13064 145 ft 18 kts 295°
2026-04-25 14:50 55.58639 12.12923 143 ft 10 kts 350°
2026-04-25 14:51 55.58699 12.12961 143 ft 10 kts 31°
2026-04-25 14:51 55.58708 12.12971 143 ft 0 kts 30°
2026-04-25 14:53 55.58734 12.12999 143 ft 7 kts 33°
2026-04-25 14:53 55.58792 12.13012 144 ft 12 kts 339°
2026-04-25 14:53 55.58858 12.12895 143 ft 17 kts 296°
2026-04-25 14:53 55.58913 12.12688 144 ft 20 kts 294°
2026-04-25 14:54 55.58968 12.12555 144 ft 9 kts 360°
2026-04-25 14:54 55.59022 12.12600 146 ft 10 kts 48°
2026-04-25 14:54 55.59011 12.12705 146 ft 9 kts 114°
2026-04-25 14:54 55.58986 12.12788 146 ft 7 kts 122°
2026-04-25 14:55 55.58996 12.12846 147 ft 5 kts 16°
2026-04-25 14:55 55.59024 12.12839 147 ft 3 kts 300°
2026-04-25 14:55 55.59025 12.12832 147 ft 0 kts 289°